sat.trackr.live / text

‹ back to catalog

GLOBALSTAR M086

NORAD 38045 · 2011-080F

PAYLOAD ACTIVE UNKNOWN

§ Identity

Operator
Country
GLOB
Launch date
2011-12-28
Launch site
TYMSC
Launch vehicle
Mass (kg)
RCS (m²)
4.52

Purposes: comms

External: N2YO · Heavens-Above · Gunter

§ Orbital elements

Epoch: 2026-05-25T03:00:33.452352Z

Period
114.08 min
Inclination
51.9917°
Eccentricity
0.0001425
Mean motion
12.62286090 rev/d
Perigee alt
1,412.4 km
Apogee alt
1,414.6 km
Semi-major
7,791.7 km
B*
1.5045e-5
RAAN
38.6138°
Arg perigee
24.8533°
Mean anomaly
138.8499°
Rev number
66,674

§ Raw data

GLOBALSTAR M0861 38045U 11080F   26145.12538718 -.00000101  00000+0  15045-4 0  99942 38045  51.9917  38.6138 0001425  24.8533 138.8499 12.62286090666747

JSON: /api/v1/satellites/38045 · /tle

For live sub-satellite position, see the globe view (requires WebGL).

§ Visibility from observer

Set your observer location to see the next 7 days of passes ≥ 10°. The values pass through the URL so the page stays shareable.

No JS? Fill the form by hand. The geolocation button needs JavaScript.